This demonstration page uses our WeatherBlox Daily Observations layout. Learn more.

Left ArrowRight Arrow

36.19886, -115.1175

Hourly Observations for August 5, 2016

Temp ( °F °C ) Dew Point ( °F °C ) Humidity (%) Winds ( mph kmh ) Pressure ( in mb ) Visibility ( mi km ) Precip ( " mm )
12:53 am 00:53 Clear 81 27.2 65 18.3 58 58 ESE 5 7 29.87 1011 10 16.0934 0 0
1:53 am 01:53 Partly Cloudy 81 27.2 65 18.3 58 58 S 5 7 29.87 1011 10 16.0934 0 0
2:53 am 02:53 Mostly Cloudy 81 27.2 64 17.8 57 57 W 3 6 29.86 1011 10 16.0934 0 0
3:53 am 03:53 Mostly Clear 81 27.2 63 17.2 54 54 SW 3 6 29.86 1011 10 16.0934 0 0
4:53 am 04:53 Mostly Cloudy 80 26.7 64 17.8 58 58 Calm 29.86 1011 10 16.0934 0 0
5:53 am 05:53 Mostly Sunny 80 26.7 59 15 49 49 N 7 11 29.87 1012 10 16.0934 0 0
6:53 am 06:53 Sunny 79 26.1 59 15 50 50 ENE 5 7 29.89 1012 10 16.0934 0 0
7:53 am 07:53 Sunny 81 27.2 61 16.1 51 51 VRB 3 6 29.89 1012 10 16.0934 0 0
8:53 am 08:53 Sunny 84 28.9 61 16.1 46 46 VRB 5 7 29.88 1012 10 16.0934 0 0
9:53 am 09:53 Sunny 86 30 59 15 40 40 ESE 7 11 29.88 1012 10 16.0934 0 0
10:53 am 10:53 Sunny 89 31.7 58 14.4 35 35 SE 13 20 29.86 1011 10 16.0934 0 0
11:53 am 11:53 Sunny 90 32.2 59 15 35 35 SSE 9 15 29.85 1011 10 16.0934 0 0
12:53 pm 12:53 Sunny 92 33.3 59 15 33 33 SSE 8 13 29.83 1010 10 16.0934 0 0
1:53 pm 13:53 Sunny 96 35.6 59 15 29 29 ESE 13 20 29.78 1009 10 16.0934 0 0
2:53 pm 14:53 Sunny 98 36.7 59 15 27 27 E 10 17 29.75 1007 10 16.0934 0 0
3:53 pm 15:53 Sunny 100 37.8 58 14.4 25 25 ESE 12 19 29.71 1006 10 16.0934 0 0
4:53 pm 16:53 Sunny 98 36.7 57 13.9 25 25 S 21 33 29.7 1006 10 16.0934 0 0
5:00 pm 17:00 Sunny 99 37 57 14 25 25 S 15 24 29.53 1000 10 16.0934 0 0
5:53 pm 17:53 Sunny 99 37.2 54 12.2 22 22 S 16 26 29.68 1005 10 16.0934 0 0
6:53 pm 18:53 Sunny 98 36.7 54 12.2 23 23 S 12 19 29.68 1005 10 16.0934 0 0
7:53 pm 19:53 Clear 97 36.1 53 11.7 23 23 S 9 15 29.7 1006 10 16.0934 0 0
8:53 pm 20:53 Mostly Cloudy 96 35.6 52 11.1 23 23 SE 7 11 29.72 1006 10 16.0934 0 0
9:53 pm 21:53 Mostly Clear 95 35 54 12.2 25 25 S 7 11 29.73 1007 10 16.0934 0 0
10:53 pm 22:53 Clear 93 33.9 51 10.6 24 24 S 6 9 29.73 1007 10 16.0934 0 0
11:53 pm 23:53 Mostly Clear 92 33.3 53 11.7 27 27 SSW 7 11 29.74 1007 10 16.0934 0 0

Powered by AerisWeather